This is the latest recevied weather packets stored in our database for station/object KC8YYF. If no packets are shown the sender has not sent any weather packets the latest 10 day(s).
| Time | Temp. | Humidity | Pressure | Rain* | Wind** | Luminosity | Snow |
|---|---|---|---|---|---|---|---|
| 1777815719 | 8.33° C | 71% | 1019.2 hPa | 0 mm | - | 328 W/m² | - |
| 1777815416 | 7.22° C | 70% | 1019.2 hPa | 0 mm | - | 307 W/m² | - |
| 1777815113 | 7.78° C | 72% | 1019.1 hPa | 0 mm | - | 316 W/m² | - |
| 1777814809 | 6.67° C | 71% | 1019.3 hPa | 0 mm | - | 297 W/m² | - |
| 1777814506 | 7.22° C | 73% | 1019.4 hPa | 0 mm | - | 278 W/m² | - |
| 1777814203 | 6.11° C | 74% | 1019.2 hPa | 0 mm | - | 273 W/m² | - |
| 1777813900 | 6.11° C | 77% | 1019.2 hPa | 0 mm | - | 241 W/m² | - |
| 1777813598 | 5.56° C | 78% | 1019.2 hPa | 0 mm | - | 181 W/m² | - |
| 1777813295 | 5° C | 81% | 1019.4 hPa | 0 mm | - | 148 W/m² | - |
| 1777812992 | 4.44° C | 84% | 1019.4 hPa | 0 mm | - | 196 W/m² | - |
| 1777812690 | 3.89° C | 86% | 1019.3 hPa | 0 mm | - | 40 W/m² | - |
| 1777812386 | 3.33° C | 90% | 1019.4 hPa | 0 mm | - | 33 W/m² | - |
| 1777812085 | 2.78° C | 93% | 1019.3 hPa | 0 mm | - | 38 W/m² | - |
| 1777811783 | 2.22° C | 96% | 1019.2 hPa | 0 mm | - | 71 W/m² | - |
| 1777811479 | 2.22° C | 97% | 1019.1 hPa | 0 mm | - | 24 W/m² | - |
| 1777811175 | 1.67° C | 97% | 1019.2 hPa | 0 mm | - | 26 W/m² | - |
| 1777810873 | 1.67° C | 98% | 1019.2 hPa | 0 mm | - | 23 W/m² | - |
| 1777810569 | 1.11° C | 98% | 1019.3 hPa | 0 mm | - | 22 W/m² | - |
| 1777810266 | 1.67° C | 98% | 1019 hPa | 0 mm | - | 32 W/m² | - |
| 1777809962 | 1.11° C | 98% | 1019 hPa | 0 mm | - | 21 W/m² | - |
| 1777809660 | 0.56° C | 98% | 1019.1 hPa | 0 mm | - | 17 W/m² | - |
| 1777809358 | 0.56° C | 98% | 1019.1 hPa | 0 mm | - | 15 W/m² | - |
| 1777809055 | 0.56° C | 98% | 1019 hPa | 0 mm | - | 13 W/m² | - |
| 1777808753 | 0.56° C | 98% | 1018.9 hPa | 0 mm | - | 13 W/m² | - |
| 1777808449 | 0° C | 98% | 1019 hPa | 0 mm | - | 11 W/m² | - |
* Rain latest hour (hover to see other rain measurements)
** Current wind speed in m/s (hover to see current wind gust speed)